"Pseudo-MPEC" for P12oZmn

Created 2026 Aug 8 13:35:07 UT using Find_Orb

Click here for an explanation of pseudo-MPECs

 
 Astrometry: 
     P12oZmn*0C2026 08 08.45560021 33 03.955-15 25 30.99   ~88D5 20.53wXNEOCPF51
     P12oZmn 0C2026 08 08.46714021 33 03.592-15 26 05.63   ~88D5 20.41wXNEOCPF51
     P12oZmn 0C2026 08 08.47826921 33 03.254-15 26 39.02   ~88D5 20.55wXNEOCPF51
     P12oZmn 0C2026 08 08.48939221 33 02.910-15 27 12.39   ~88D5 20.35wXNEOCPF51

Station data:
(F51) Pan-STARRS 1, Haleakala  (N20.707234 W156.255910)  US/Hawaii.
   Observers J. Herman, T. Lowe, P. Minguez, A. Schultz, I. Smith. Measurers
   K. Chambers, T. de Boer, J. Fairlamb, H. Gao, M. Huber, C.-C. Lin, E.
   Magnier, Y. Ramanjooloo, R. Wainscoat, R. Weryk. 1.8-m Ritchey-Chrétien +
   CCD.

Orbital elements:  P12oZmn
   Perihelion 2026 May 21.703978 +/- 64.9 TT = 16:53:43.6 (JD 2461182.203978)
Epoch 2026 Aug  8.0 TT = JDT 2461260.5   Earth MOID: 0.2827   Ma: 0.0425
M  26.272917429 +/- 25              (J2000 ecliptic)             AutoNEOCP
n   0.335558776 +/- 0.268           Peri.  116.123207 +/- 60
a   2.050959011 +/- 1.09            Node   136.316406 +/- 0.9
e   0.43153475 +/- 0.27             Incl.   19.688166 +/- 15
P   2.93721                H 21.26  G  0.15   U 11.9  SR
q 1.165898912 +/- 0.406    Q 2.936019110 +/- 40.4
From 4 observations 2026 Aug. 8 (48.7 min); mean residual 0".03
Residuals in arcseconds: 
260808 F51  .03+  .01-    260808 F51  .03+  .02+    
260808 F51  .06-  .01+    260808 F51  .00   .01-    

Ephemerides (geocentric):
Date (UTC) HH   RA             Dec           delta  r     elong  mag " sig PA
---- --------  ------------   ------------  ------ ------ -----  --- --------
2026 08 08 14  21 33 01.185   -15 31 41.36  .39588 1.4088 175.0 20.3 97.9 125
2026 08 08 15  21 33 00.272   -15 33 46.17  .39608 1.4090 175.1 20.3  120 117
2026 08 08 16  21 32 59.359   -15 35 50.86  .39629 1.4092 175.1 20.3  145 111
2026 08 08 17  21 32 58.445   -15 37 55.43  .39649 1.4094 175.2 20.3  172 106
2026 08 08 18  21 32 57.530   -15 39 59.87  .39669 1.4096 175.2 20.3  201 102
2026 08 08 19  21 32 56.615   -15 42 04.18  .39690 1.4099 175.3 20.3  232  98
2026 08 08 20  21 32 55.700   -15 44 08.37  .39710 1.4101 175.3 20.3  265  95
2026 08 08 21  21 32 54.785   -15 46 12.43  .39731 1.4103 175.4 20.3  302  93
2026 08 08 22  21 32 53.869   -15 48 16.36  .39751 1.4105 175.4 20.3  341  90
2026 08 08 23  21 32 52.952   -15 50 20.17  .39772 1.4107 175.5 20.3  384  88
2026 08 09 00  21 32 52.036   -15 52 23.85  .39793 1.4109 175.5 20.3  431  85
2026 08 09 01  21 32 51.119   -15 54 27.40  .39813 1.4112 175.5 20.3  484  83
2026 08 09 02  21 32 50.202   -15 56 30.82  .39834 1.4114 175.6 20.3  543  81
2026 08 09 03  21 32 49.284   -15 58 34.12  .39855 1.4116 175.6 20.3  609  78
2026 08 09 04  21 32 48.366   -16 00 37.28  .39875 1.4118 175.7 20.3  684  76
2026 08 09 05  21 32 47.448   -16 02 40.32  .39896 1.4120 175.7 20.3  771  74
2026 08 09 06  21 32 46.529   -16 04 43.24  .39917 1.4122 175.8 20.3  872  72
2026 08 09 07  21 32 45.611   -16 06 46.02  .39938 1.4125 175.8 20.3  990  71
2026 08 09 08  21 32 44.692   -16 08 48.67  .39959 1.4127 175.8 20.3 1131  69
2026 08 09 09  21 32 43.772   -16 10 51.20  .39980 1.4129 175.9 20.3 1301  67
2026 08 09 10  21 32 42.853   -16 12 53.60  .40001 1.4131 175.9 20.3 1510  65
2026 08 09 11  21 32 41.933   -16 14 55.86  .40022 1.4133 175.9 20.3 1773  64
2026 08 09 12  21 32 41.013   -16 16 58.00  .40043 1.4135 176.0 20.3 2114  63
2026 08 09 13  21 32 40.093   -16 19 00.01  .40064 1.4138 176.0 20.3 2570  61
2026 08 09 14  21 32 39.173   -16 21 01.89  .40085 1.4140 176.1 20.3 3210  60
2026 08 09 15  21 32 38.252   -16 23 03.64  .40107 1.4142 176.1 20.3 4170  60
2026 08 09 16  21 32 37.331   -16 25 05.26  .40128 1.4144 176.1 20.3 5754  59
2026 08 09 17  21 32 36.410   -16 27 06.75  .40149 1.4146 176.2 20.3 8803  60
2026 08 09 18  21 32 35.489   -16 29 08.11  .40170 1.4148 176.2 20.3 273'  64
2026 08 09 19  21 32 34.568   -16 31 09.33  .40192 1.4151 176.2 20.3 613'  80
2026 08 09 20  21 32 33.646   -16 33 10.43  .40213 1.4153 176.3 20.3 860'  92
2026 08 09 21  21 32 32.725   -16 35 11.40  .40235 1.4155 176.3 20.3 944'  96
2026 08 09 22  21 32 31.803   -16 37 12.23  .40256 1.4157 176.3 20.3 981'  98
2026 08 09 23  21 32 30.881   -16 39 12.94  .40278 1.4159 176.4 20.3  17d  99
2026 08 10 00  21 32 29.960   -16 41 13.51  .40299 1.4162 176.4 20.3  17d  99
2026 08 10 01  21 32 29.038   -16 43 13.95  .40321 1.4164 176.4 20.3  17d  99
2026 08 10 02  21 32 28.116   -16 45 14.26  .40342 1.4166 176.4 20.3  17d 100
2026 08 10 03  21 32 27.193   -16 47 14.44  .40364 1.4168 176.5 20.3  17d 100
2026 08 10 04  21 32 26.271   -16 49 14.49  .40386 1.4170 176.5 20.3  17d 100
2026 08 10 05  21 32 25.349   -16 51 14.40  .40407 1.4172 176.5 20.3  17d 100
2026 08 10 06  21 32 24.427   -16 53 14.19  .40429 1.4175 176.5 20.3  17d 100
2026 08 10 07  21 32 23.504   -16 55 13.84  .40451 1.4177 176.6 20.3  17d 100
2026 08 10 08  21 32 22.582   -16 57 13.35  .40473 1.4179 176.6 20.3  17d 100
2026 08 10 09  21 32 21.660   -16 59 12.74  .40495 1.4181 176.6 20.3  17d 100
2026 08 10 10  21 32 20.737   -17 01 11.99  .40517 1.4183 176.6 20.3  18d 100
2026 08 10 11  21 32 19.815   -17 03 11.11  .40539 1.4186 176.6 20.3  18d 100
2026 08 10 12  21 32 18.893   -17 05 10.09  .40561 1.4188 176.7 20.3  18d 100
2026 08 10 13  21 32 17.970   -17 07 08.95  .40583 1.4190 176.7 20.3  18d 100